Showing default

LUCH (OLYMP), 40258

Orbit data source: Space-Track

LUCH (OLYMP), 40258 is a payload satellite owned by FSB (CIS) in GEO that was launched on Sat, 27 Sep 2014 UTC via a PROTON-M/BRIZ-M launch vehicle from the Tyuratam Missile And Space Complex (TTMTR). Payload-class satellites include a variety of spacecraft equipped with specific instruments for various scientific and technological missions. These include communications satellites like Starlink; space stations such as the ISS; scientific satellites like the Hubble; Earth observation satellites from companies like Planet Labs, Umbra, and HawkEye 360; GPS; miniature CubeSats for education and research; and military/defense satellites.

Not visible in the next 10 days
Identifier
40258, 2014-058A
Orbit
GEO
Country
Flag of CISCIS
Related business
Manufacturer
Resehetnev ISS
Mission
Operational Defense Communications
Bus & Motor
EKSPRESS-2000, Unknown motor
Mass
1,930 kg wet, ~1,800 kg dry
Launch date (UTC)
2014-09-27 (11 years ago)
Launch vehicle
PROTON-M/BRIZ-M
Launch site
Tyuratam Missile And Space Complex (TTMTR)
Object type
Payload
Rocket body
Debris
Shape & HBR
Cyl + 2 Pan + 2 Dish, 8.0 m
Radar Cross Section
40.926 m², Large (>1 m²)

Expand to show TLE details & history
Last TLE update: 6 days ago

TLE from 6 days ago
0 LUCH (OLYMP)
1 40258U 14058A   25254.66910192 -.00000002  00000-0  00000+0 0  9991
2 40258   1.1668  86.5420 0000857 149.1303  61.6779  1.00273786 38202
Epoch: 2025-09-11T16:03Z
TLE epoch observation values (Epoch: 2025-09-11T16:03:30.405Z)
Latitude
-0.58062°
Longitude
65.53611°
Altitude
35,783.904 km
Speed
3.075 km/s
True Right ascension
19h 49m 21s
True Declination
0° 34' 48"
Sunlit
Object was in daylight at epoch
Visualization orbit readout
Latitude
Unknown
Longitude
Unknown
Altitude
Unknown
Speed
Unknown
Apparent Right ascension
Unknown
Apparent Declination
Unknown
Sunlit
N/A
Visualization observer readout
Local Sidereal Time
03:52:59
Azimuth
Unknown
Elevation
Unknown
Doppler factor
Unknown
Orbital elements
Apogee altitude
35,790.717 km
Perigee altitude
35,783.49 km
Semi-major axis
42,165.241 km
Eccentricity
0.00009
Inclination
1.1668°
RAAN
86.542°
Arg. of periapsis
149.1303°
True anomaly
61.68655°
Mean anomaly
61.6779°
Eccentric anomaly
61.68222°
Mean motion
0.25068 °/min
Orbital period
1,436.12 mins
BSTAR
0
Loading maneuver chart data...
Computing Atmospheric mass density...
Loading historical data...
Loading historical data...
Loading historical data...
Loading historical data...
Loading historical data...
Loading historical data...
Loading historical data...
Other satellites on launch #58 in the year 2014 (2014-09-27 UTC)

Documentation

Showing up to 5 results
|